Total_Precipitation_Accumulation
6.13 3.90 3.38 3.62 2.47 2.38 3.33 3.34 2.82 1.83 1.41 1.21 1.34 1.00 0.86 0.72 0.55 0.51 0.46 0.43 0.54 0.56 0.66 0.68 0.55 0.42 0.34 0.32 0.38 0.42 0.47 0.63
7.15 5.19 3.22 1.79 2.51 2.26 2.26 3.09 3.70 2.41 1.93 1.76 1.43 1.28 1.06 0.69 0.51 0.55 0.74 0.70 0.46 0.33 0.44 0.52 0.47 0.33 0.27 0.32 0.41 0.67 0.45 0.54
6.70 6.44 4.01 2.76 2.52 2.39 1.83 1.74 2.78 3.67 2.49 2.07 1.77 1.04 1.04 0.80 0.83 0.79 0.81 0.72 0.71 0.64 0.54 0.47 0.43 0.32 0.30 0.55 0.50 0.42 0.53 0.45
3.02 3.32 3.07 2.39 3.04 3.08 1.74 1.42 1.20 2.66 2.94 2.18 1.60 1.02 1.03 0.95 0.74 0.78 0.84 0.76 0.84 0.81 0.77 0.61 0.44 0.23 0.20 0.28 0.31 0.70 0.80 0.79
1.31 1.57 1.52 1.57 2.07 1.68 1.56 1.34 1.14 1.45 2.58 2.04 1.33 0.92 0.87 1.17 0.65 0.71 1.07 1.14 0.89 0.73 0.56 0.51 0.39 0.31 0.16 0.15 0.24 0.32 0.41 0.72
1.09 0.93 1.14 1.31 1.55 1.50 1.14 1.15 1.10 1.14 1.97 1.86 1.27 0.93 0.63 0.78 0.43 0.49 1.07 1.05 0.79 0.62 0.39 0.42 0.46 0.47 0.30 0.32 0.31 0.40 0.33 0.60
1.04 0.89 0.95 1.03 0.91 0.93 0.84 0.76 0.96 0.99 1.11 1.62 1.36 0.84 0.50 0.54 0.46 0.51 0.89 0.84 0.89 0.54 0.48 0.56 0.53 0.54 0.46 0.33 0.22 0.47 0.47 0.57
1.04 1.31 0.99 1.13 0.87 0.81 0.77 0.68 0.83 1.08 0.94 1.13 1.63 0.99 0.64 0.68 0.59 0.51 0.76 0.80 0.73 0.60 0.34 0.49 0.63 0.54 0.52 0.35 0.11 0.33 0.47 0.70
1.14 1.65 1.27 1.21 0.85 0.92 0.90 0.90 0.80 0.83 0.97 1.28 1.37 1.10 0.82 0.71 0.77 0.62 0.69 0.85 0.54 0.55 0.53 0.53 0.54 0.55 0.48 0.46 0.27 0.17 0.22 0.51
1.32 1.42 1.03 1.22 1.05 1.22 1.59 0.94 0.63 0.74 0.82 0.98 1.15 1.17 0.92 0.84 0.84 0.73 0.84 0.83 0.52 0.44 0.34 0.44 0.48 0.43 0.36 0.35 0.29 0.16 0.10 0.22
0.89 0.98 1.03 1.51 1.91 2.01 1.59 1.02 0.68 0.81 0.72 0.75 0.95 1.30 1.00 0.88 0.99 0.90 0.95 0.87 0.60 0.44 0.33 0.36 0.40 0.38 0.31 0.35 0.38 0.25 0.15 0.16
0.76 0.84 1.34 2.10 2.03 1.40 1.26 1.24 1.17 1.15 0.68 0.62 0.83 1.47 1.15 1.14 1.21 1.22 1.20 0.86 0.65 0.65 0.49 0.48 0.40 0.30 0.36 0.39 0.30 0.31 0.29 0.29
0.70 0.86 0.81 0.98 1.07 1.18 1.20 1.11 1.20 1.05 0.78 0.72 0.79 1.26 1.43 1.22 1.35 1.37 1.45 1.12 0.92 0.71 0.69 0.74 0.61 0.57 0.77 0.71 0.46 0.43 0.43 0.37
0.41 0.34 0.23 0.33 0.54 0.68 0.75 0.75 0.70 0.89 1.08 0.97 1.33 1.27 1.34 1.24 1.39 1.33 1.31 1.56 1.43 1.22 0.97 0.88 0.65 0.74 0.75 0.77 0.89 0.91 0.41 0.34
0.09 0.16 0.14 0.26 0.39 0.80 1.40 1.81 1.88 2.07 1.56 1.40 1.63 1.46 1.26 1.05 1.25 1.38 1.29 1.67 1.87 1.82 1.38 1.15 1.22 1.16 0.68 0.81 0.85 0.82 0.70 0.47
0.13 0.13 0.22 0.33 0.61 0.88 1.22 1.17 1.19 1.12 1.39 1.61 1.80 2.08 1.87 1.38 1.01 1.37 1.25 1.58 1.91 1.85 1.71 1.31 1.32 1.30 1.20 0.91 0.72 0.63 0.59 0.55
0.10 0.15 0.34 0.50 0.79 0.74 1.15 1.56 1.54 1.35 1.53 2.03 2.68 2.23 2.35 2.53 1.81 1.31 1.55 1.73 1.90 2.07 2.05 1.80 1.50 1.28 1.03 0.84 0.88 0.83 0.64 0.67
0.12 0.18 0.23 0.50 0.71 1.29 1.91 1.88 1.83 1.95 1.81 1.67 2.14 2.90 2.52 2.76 2.85 2.02 1.68 1.60 1.91 2.07 2.42 2.15 2.08 1.88 1.52 1.16 0.81 0.81 0.70 0.71
0.21 0.16 0.21 0.29 0.55 1.08 1.52 2.20 2.73 2.39 1.98 2.03 2.08 2.97 3.52 2.97 2.70 3.01 2.40 1.94 2.03 2.44 2.39 2.35 2.29 2.13 2.02 1.74 1.35 0.98 0.73 0.76
0.47 0.31 0.40 0.43 0.63 1.06 1.40 1.85 2.29 3.21 3.38 3.27 3.18 2.86 3.60 4.82 4.99 3.41 2.82 2.65 2.36 2.37 2.67 2.80 2.73 2.70 2.34 2.20 1.82 1.35 1.12 1.17